owner,sensor,date,latitude,longitude,dew_point_temperature,qcFlag 
ADCP,ioos:station:wmo:42362:1,2011-09-01T19:30:00Z,27.7950,-90.6480,24.4,11111222 
ADCP,ioos:station:wmo:42362:1,2011-09-01T19:45:00Z,27.7950,-90.6480,24.4,11111222 
ADCP,ioos:station:wmo:42362:1,2011-09-01T20:00:00Z,27.7950,-90.6480,24.4,11111222 
ADCP,ioos:station:wmo:42362:1,2011-09-01T20:15:00Z,27.7950,-90.6480,23.9,11111222 
ADCP,ioos:station:wmo:42362:1,2011-09-01T20:30:00Z,27.7950,-90.6480,23.3,11111222 
ADCP,ioos:station:wmo:42362:1,2011-09-01T20:45:00Z,27.7950,-90.6480,23.9,11111222 
ADCP,ioos:station:wmo:42362:1,2011-09-01T21:00:00Z,27.7950,-90.6480,23.9,11111222 
ADCP,ioos:station:wmo:42362:1,2011-09-01T21:15:00Z,27.7950,-90.6480,23.9,11111222 
ADCP,ioos:station:wmo:42362:1,2011-09-01T21:30:00Z,27.7950,-90.6480,23.9,11111222 
ADCP,ioos:station:wmo:42362:1,2011-09-01T21:45:00Z,27.7950,-90.6480,23.9,11111222 
ADCP,ioos:station:wmo:42362:1,2011-09-01T22:00:00Z,27.7950,-90.6480,24.4,11111222 
ADCP,ioos:station:wmo:42362:1,2011-09-01T22:15:00Z,27.7950,-90.6480,23.3,11111222 
ADCP,ioos:station:wmo:42362:1,2011-09-01T22:30:00Z,27.7950,-90.6480,23.9,11111222 
ADCP,ioos:station:wmo:42362:1,2011-09-01T22:45:00Z,27.7950,-90.6480,23.9,11111222 
ADCP,ioos:station:wmo:42362:1,2011-09-01T23:00:00Z,27.7950,-90.6480,23.9,11111222 
ADCP,ioos:station:wmo:42362:1,2011-09-01T23:15:00Z,27.7950,-90.6480,24.4,11111222 
ADCP,ioos:station:wmo:42362:1,2011-09-01T23:30:00Z,27.7950,-90.6480,23.9,11111222 
ADCP,ioos:station:wmo:42362:1,2011-09-01T23:45:00Z,27.7950,-90.6480,23.9,11111222 
ADCP,ioos:station:wmo:42362:1,2011-09-02T00:00:00Z,27.7950,-90.6480,23.9,11111222 
ADCP,ioos:station:wmo:42362:1,2011-09-02T00:15:00Z,27.7950,-90.6480,23.9,11111222 
ADCP,ioos:station:wmo:42362:1,2011-09-02T00:30:00Z,27.7950,-90.6480,23.9,11111222 
ADCP,ioos:station:wmo:42362:1,2011-09-02T00:45:00Z,27.7950,-90.6480,23.9,11111222 
ADCP,ioos:station:wmo:42362:1,2011-09-02T01:00:00Z,27.7950,-90.6480,23.9,11111222 
ADCP,ioos:station:wmo:42362:1,2011-09-02T01:15:00Z,27.7950,-90.6480,23.9,11111222 
ADCP,ioos:station:wmo:42362:1,2011-09-02T01:30:00Z,27.7950,-90.6480,23.3,11111222 
ADCP,ioos:station:wmo:42362:1,2011-09-02T01:45:00Z,27.7950,-90.6480,23.9,11111222 
ADCP,ioos:station:wmo:42362:1,2011-09-02T02:00:00Z,27.7950,-90.6480,23.3,11111222 
ADCP,ioos:station:wmo:42362:1,2011-09-02T02:15:00Z,27.7950,-90.6480,23.9,11111222 
ADCP,ioos:station:wmo:42362:1,2011-09-02T02:30:00Z,27.7950,-90.6480,24.4,11111222 
ADCP,ioos:station:wmo:42362:1,2011-09-02T02:45:00Z,27.7950,-90.6480,23.9,11111222 
ADCP,ioos:station:wmo:42362:1,2011-09-02T03:00:00Z,27.7950,-90.6480,23.9,11111222 
ADCP,ioos:station:wmo:42362:1,2011-09-02T03:15:00Z,27.7950,-90.6480,23.3,11111222 
ADCP,ioos:station:wmo:42362:1,2011-09-02T03:30:00Z,27.7950,-90.6480,24.4,11111222 
ADCP,ioos:station:wmo:42362:1,2011-09-02T03:45:00Z,27.7950,-90.6480,24.4,11111222 
ADCP,ioos:station:wmo:42362:1,2011-09-02T04:00:00Z,27.7950,-90.6480,23.9,11111222 
ADCP,ioos:station:wmo:42362:1,2011-09-02T04:15:00Z,27.7950,-90.6480,24.4,11111222 
ADCP,ioos:station:wmo:42362:1,2011-09-02T04:30:00Z,27.7950,-90.6480,24.4,11111222 
ADCP,ioos:station:wmo:42362:1,2011-09-02T04:45:00Z,27.7950,-90.6480,24.4,11111222 
ADCP,ioos:station:wmo:42362:1,2011-09-02T05:00:00Z,27.7950,-90.6480,23.9,11111222 
ADCP,ioos:station:wmo:42362:1,2011-09-02T05:15:00Z,27.7950,-90.6480,23.9,11111222 
ADCP,ioos:station:wmo:42362:1,2011-09-02T05:30:00Z,27.7950,-90.6480,23.9,11111222 
ADCP,ioos:station:wmo:42362:1,2011-09-02T05:45:00Z,27.7950,-90.6480,23.9,11111222 
ADCP,ioos:station:wmo:42362:1,2011-09-02T06:00:00Z,27.7950,-90.6480,24.4,11111222 
ADCP,ioos:station:wmo:42362:1,2011-09-02T06:30:00Z,27.7950,-90.6480,24.4,11111222 
ADCP,ioos:station:wmo:42362:1,2011-09-02T06:45:00Z,27.7950,-90.6480,23.3,11111222 
ADCP,ioos:station:wmo:42362:1,2011-09-02T07:00:00Z,27.7950,-90.6480,23.9,11111222 
ADCP,ioos:station:wmo:42362:1,2011-09-02T07:15:00Z,27.7950,-90.6480,24.4,11111222 
ADCP,ioos:station:wmo:42362:1,2011-09-02T07:30:00Z,27.7950,-90.6480,24.4,11111222 
ADCP,ioos:station:wmo:42362:1,2011-09-02T07:45:00Z,27.7950,-90.6480,24.4,11111222 
ADCP,ioos:station:wmo:42362:1,2011-09-02T08:00:00Z,27.7950,-90.6480,24.4,11111222 
ADCP,ioos:station:wmo:42362:1,2011-09-02T08:15:00Z,27.7950,-90.6480,24.4,11111222 
ADCP,ioos:station:wmo:42362:1,2011-09-02T08:30:00Z,27.7950,-90.6480,24.4,11111222 
ADCP,ioos:station:wmo:42362:1,2011-09-02T08:45:00Z,27.7950,-90.6480,23.9,11111222 
ADCP,ioos:station:wmo:42362:1,2011-09-02T09:00:00Z,27.7950,-90.6480,24.4,11111222 
ADCP,ioos:station:wmo:42362:1,2011-09-02T09:15:00Z,27.7950,-90.6480,23.9,11111222 
ADCP,ioos:station:wmo:42362:1,2011-09-02T09:30:00Z,27.7950,-90.6480,23.9,11111222 
ADCP,ioos:station:wmo:42362:1,2011-09-02T09:45:00Z,27.7950,-90.6480,24.4,11111222 
ADCP,ioos:station:wmo:42362:1,2011-09-02T10:00:00Z,27.7950,-90.6480,23.9,11111222 
ADCP,ioos:station:wmo:42362:1,2011-09-02T10:15:00Z,27.7950,-90.6480,24.4,11111222 
ADCP,ioos:station:wmo:42362:1,2011-09-02T10:30:00Z,27.7950,-90.6480,24.4,11111222 
ADCP,ioos:station:wmo:42362:1,2011-09-02T10:45:00Z,27.7950,-90.6480,23.9,11111222 
ADCP,ioos:station:wmo:42362:1,2011-09-02T11:00:00Z,27.7950,-90.6480,23.9,11111222 
ADCP,ioos:station:wmo:42362:1,2011-09-02T11:30:00Z,27.7950,-90.6480,24.4,11111222 
ADCP,ioos:station:wmo:42362:1,2011-09-02T11:45:00Z,27.7950,-90.6480,23.9,11111222 
ADCP,ioos:station:wmo:42362:1,2011-09-02T12:00:00Z,27.7950,-90.6480,24.4,11111222 
ADCP,ioos:station:wmo:42362:1,2011-09-02T12:15:00Z,27.7950,-90.6480,23.9,11111222 
ADCP,ioos:station:wmo:42362:1,2011-09-02T12:30:00Z,27.7950,-90.6480,24.4,11111222 
ADCP,ioos:station:wmo:42362:1,2011-09-02T12:45:00Z,27.7950,-90.6480,24.4,11111222 
ADCP,ioos:station:wmo:42362:1,2011-09-02T13:00:00Z,27.7950,-90.6480,23.9,11111222 
ADCP,ioos:station:wmo:42362:1,2011-09-02T13:15:00Z,27.7950,-90.6480,24.4,11111222 
ADCP,ioos:station:wmo:42362:1,2011-09-02T13:30:00Z,27.7950,-90.6480,23.9,11111222 
ADCP,ioos:station:wmo:42362:1,2011-09-02T13:45:00Z,27.7950,-90.6480,24.4,11111222 
ADCP,ioos:station:wmo:42362:1,2011-09-02T14:00:00Z,27.7950,-90.6480,25.0,11111222 
ADCP,ioos:station:wmo:42362:1,2011-09-02T14:15:00Z,27.7950,-90.6480,24.4,11111222 
ADCP,ioos:station:wmo:42362:1,2011-09-02T14:30:00Z,27.7950,-90.6480,24.4,11111222 
ADCP,ioos:station:wmo:42362:1,2011-09-02T15:00:00Z,27.7950,-90.6480,25.0,11111222 
ADCP,ioos:station:wmo:42362:1,2011-09-02T15:30:00Z,27.7950,-90.6480,25.0,11111222 
ADCP,ioos:station:wmo:42362:1,2011-09-02T15:45:00Z,27.7950,-90.6480,25.0,11111222 
ADCP,ioos:station:wmo:42362:1,2011-09-02T16:00:00Z,27.7950,-90.6480,25.0,11111222 
ADCP,ioos:station:wmo:42362:1,2011-09-02T16:15:00Z,27.7950,-90.6480,25.0,11111222 
ADCP,ioos:station:wmo:42362:1,2011-09-02T16:30:00Z,27.7950,-90.6480,25.0,11111222 
ADCP,ioos:station:wmo:42362:1,2011-09-02T16:45:00Z,27.7950,-90.6480,25.0,11111222 
ADCP,ioos:station:wmo:42362:1,2011-09-02T17:00:00Z,27.7950,-90.6480,24.4,11111222 
ADCP,ioos:station:wmo:42362:1,2011-09-02T17:15:00Z,27.7950,-90.6480,24.4,11111222 
ADCP,ioos:station:wmo:42362:1,2011-09-02T17:30:00Z,27.7950,-90.6480,24.4,11111222 
ADCP,ioos:station:wmo:42362:1,2011-09-02T17:45:00Z,27.7950,-90.6480,24.4,11111222 
ADCP,ioos:station:wmo:42362:1,2011-09-02T18:00:00Z,27.7950,-90.6480,24.4,11111222 
ADCP,ioos:station:wmo:42362:1,2011-09-02T18:15:00Z,27.7950,-90.6480,25.0,11111222 
ADCP,ioos:station:wmo:42362:1,2011-09-02T18:30:00Z,27.7950,-90.6480,25.0,11111222 
ADCP,ioos:station:wmo:42362:1,2011-09-02T18:45:00Z,27.7950,-90.6480,24.4,11111222 
ADCP,ioos:station:wmo:42362:1,2011-09-02T19:00:00Z,27.7950,-90.6480,25.0,11111222 
ADCP,ioos:station:wmo:42362:1,2011-09-02T19:15:00Z,27.7950,-90.6480,24.4,11111222 
ADCP,ioos:station:wmo:42362:1,2011-09-02T19:30:00Z,27.7950,-90.6480,24.4,11111222 
ADCP,ioos:station:wmo:42362:1,2011-09-02T19:45:00Z,27.7950,-90.6480,25.0,11111222 
ADCP,ioos:station:wmo:42362:1,2011-09-02T20:00:00Z,27.7950,-90.6480,25.0,11111222 
ADCP,ioos:station:wmo:42362:1,2011-09-02T20:15:00Z,27.7950,-90.6480,25.0,11111222 
ADCP,ioos:station:wmo:42362:1,2011-09-02T20:30:00Z,27.7950,-90.6480,25.6,11111222 
ADCP,ioos:station:wmo:42362:1,2011-09-02T20:45:00Z,27.7950,-90.6480,25.0,11111222 
ADCP,ioos:station:wmo:42362:1,2011-09-02T21:00:00Z,27.7950,-90.6480,25.6,11111222 
ADCP,ioos:station:wmo:42362:1,2011-09-02T21:15:00Z,27.7950,-90.6480,25.0,11111222 
ADCP,ioos:station:wmo:42362:1,2011-09-02T21:30:00Z,27.7950,-90.6480,24.4,11111222 
ADCP,ioos:station:wmo:42362:1,2011-09-02T21:45:00Z,27.7950,-90.6480,25.0,11111222 
ADCP,ioos:station:wmo:42362:1,2011-09-02T22:00:00Z,27.7950,-90.6480,25.6,11111222 
ADCP,ioos:station:wmo:42362:1,2011-09-02T22:15:00Z,27.7950,-90.6480,24.4,11111222 
ADCP,ioos:station:wmo:42362:1,2011-09-02T22:30:00Z,27.7950,-90.6480,24.4,11111222 
ADCP,ioos:station:wmo:42362:1,2011-09-02T22:45:00Z,27.7950,-90.6480,25.6,11111222 
ADCP,ioos:station:wmo:42362:1,2011-09-02T23:00:00Z,27.7950,-90.6480,25.0,11111222 
ADCP,ioos:station:wmo:42362:1,2011-09-02T23:15:00Z,27.7950,-90.6480,25.0,11111222 
ADCP,ioos:station:wmo:42362:1,2011-09-02T23:30:00Z,27.7950,-90.6480,25.6,11111222 
ADCP,ioos:station:wmo:42362:1,2011-09-02T23:45:00Z,27.7950,-90.6480,25.0,11111222 
ADCP,ioos:station:wmo:42362:1,2011-09-03T00:00:00Z,27.7950,-90.6480,25.0,11111222 
ADCP,ioos:station:wmo:42362:1,2011-09-03T00:15:00Z,27.7950,-90.6480,25.6,11111222 
ADCP,ioos:station:wmo:42362:1,2011-09-03T00:30:00Z,27.7950,-90.6480,25.0,11111222 
ADCP,ioos:station:wmo:42362:1,2011-09-03T00:45:00Z,27.7950,-90.6480,25.6,11111222 
ADCP,ioos:station:wmo:42362:1,2011-09-03T01:00:00Z,27.7950,-90.6480,25.6,11111222 
ADCP,ioos:station:wmo:42362:1,2011-09-03T01:45:00Z,27.7950,-90.6480,25.6,11111222 
ADCP,ioos:station:wmo:42362:1,2011-09-03T02:00:00Z,27.7950,-90.6480,25.0,11111222 
ADCP,ioos:station:wmo:42362:1,2011-09-03T03:15:00Z,27.7950,-90.6480,25.0,11111222 
ADCP,ioos:station:wmo:42362:1,2011-09-03T03:30:00Z,27.7950,-90.6480,25.0,11111222 
ADCP,ioos:station:wmo:42362:1,2011-09-03T05:15:00Z,27.7950,-90.6480,25.0,11111222 
ADCP,ioos:station:wmo:42362:1,2011-09-03T05:30:00Z,27.7950,-90.6480,25.0,11111222 
ADCP,ioos:station:wmo:42362:1,2011-09-03T05:45:00Z,27.7950,-90.6480,25.0,11111222 
ADCP,ioos:station:wmo:42362:1,2011-09-03T06:00:00Z,27.7950,-90.6480,25.0,11111222 
ADCP,ioos:station:wmo:42362:1,2011-09-03T08:00:00Z,27.7950,-90.6480,25.0,11111222 
ADCP,ioos:station:wmo:42362:1,2011-09-03T08:15:00Z,27.7950,-90.6480,25.0,11111222 
ADCP,ioos:station:wmo:42362:1,2011-09-03T08:30:00Z,27.7950,-90.6480,25.0,11111222 
ADCP,ioos:station:wmo:42362:1,2011-09-03T08:45:00Z,27.7950,-90.6480,25.6,11111222 
ADCP,ioos:station:wmo:42362:1,2011-09-03T11:45:00Z,27.7950,-90.6480,24.4,11111222 
ADCP,ioos:station:wmo:42362:1,2011-09-03T12:00:00Z,27.7950,-90.6480,24.4,11111222 
ADCP,ioos:station:wmo:42362:1,2011-09-03T12:15:00Z,27.7950,-90.6480,23.9,11111222 
ADCP,ioos:station:wmo:42362:1,2011-09-03T12:30:00Z,27.7950,-90.6480,23.9,11111222 
ADCP,ioos:station:wmo:42362:1,2011-09-03T12:45:00Z,27.7950,-90.6480,23.9,11111222 
ADCP,ioos:station:wmo:42362:1,2011-09-03T13:00:00Z,27.7950,-90.6480,23.9,11111222 
ADCP,ioos:station:wmo:42362:1,2011-09-03T13:15:00Z,27.7950,-90.6480,23.3,11111222 
ADCP,ioos:station:wmo:42362:1,2011-09-03T17:45:00Z,27.7950,-90.6480,22.8,11111222 
ADCP,ioos:station:wmo:42362:1,2011-09-03T18:00:00Z,27.7950,-90.6480,22.8,11111222 
ADCP,ioos:station:wmo:42362:1,2011-09-03T18:15:00Z,27.7950,-90.6480,22.8,11111222 
ADCP,ioos:station:wmo:42362:1,2011-09-03T18:30:00Z,27.7950,-90.6480,22.8,11111222 
ADCP,ioos:station:wmo:42362:1,2011-09-03T18:45:00Z,27.7950,-90.6480,22.8,11111222 
ADCP,ioos:station:wmo:42362:1,2011-09-03T19:00:00Z,27.7950,-90.6480,22.8,11111222 
ADCP,ioos:station:wmo:42362:1,2011-09-03T19:15:00Z,27.7950,-90.6480,23.9,11111222 
ADCP,ioos:station:wmo:42362:1,2011-09-03T19:30:00Z,27.7950,-90.6480,23.3,11111222 
ADCP,ioos:station:wmo:42362:1,2011-09-03T19:45:00Z,27.7950,-90.6480,23.3,11111222 
ADCP,ioos:station:wmo:42362:1,2011-09-04T02:30:00Z,27.7950,-90.6480,22.2,11111222 
ADCP,ioos:station:wmo:42362:1,2011-09-04T02:45:00Z,27.7950,-90.6480,22.8,11111222 
ADCP,ioos:station:wmo:42362:1,2011-09-04T03:00:00Z,27.7950,-90.6480,23.3,11111222 
ADCP,ioos:station:wmo:42362:1,2011-09-04T03:15:00Z,27.7950,-90.6480,21.7,11111222 
ADCP,ioos:station:wmo:42362:1,2011-09-04T03:30:00Z,27.7950,-90.6480,21.1,11111222 
ADCP,ioos:station:wmo:42362:1,2011-09-04T03:45:00Z,27.7950,-90.6480,22.2,11111222 
ADCP,ioos:station:wmo:42362:1,2011-09-04T04:00:00Z,27.7950,-90.6480,21.7,11111222 
ADCP,ioos:station:wmo:42362:1,2011-09-04T04:15:00Z,27.7950,-90.6480,22.2,11111222 
ADCP,ioos:station:wmo:42362:1,2011-09-04T04:30:00Z,27.7950,-90.6480,22.8,11111222 
ADCP,ioos:station:wmo:42362:1,2011-09-04T04:45:00Z,27.7950,-90.6480,22.8,11111222 
ADCP,ioos:station:wmo:42362:1,2011-09-04T05:00:00Z,27.7950,-90.6480,22.8,11111222 
ADCP,ioos:station:wmo:42362:1,2011-09-04T05:15:00Z,27.7950,-90.6480,23.3,11111222 
ADCP,ioos:station:wmo:42362:1,2011-09-04T05:30:00Z,27.7950,-90.6480,23.3,11111222 
ADCP,ioos:station:wmo:42362:1,2011-09-04T05:45:00Z,27.7950,-90.6480,23.3,11111222 
ADCP,ioos:station:wmo:42362:1,2011-09-04T06:00:00Z,27.7950,-90.6480,23.9,11111222 
ADCP,ioos:station:wmo:42362:1,2011-09-04T16:15:00Z,27.7950,-90.6480,23.3,11111222 
ADCP,ioos:station:wmo:42362:1,2011-09-04T16:30:00Z,27.7950,-90.6480,23.9,11111222 
ADCP,ioos:station:wmo:42362:1,2011-09-04T16:45:00Z,27.7950,-90.6480,22.2,11111222 
ADCP,ioos:station:wmo:42362:1,2011-09-04T17:00:00Z,27.7950,-90.6480,22.2,11111222 
ADCP,ioos:station:wmo:42362:1,2011-09-04T17:15:00Z,27.7950,-90.6480,22.2,11111222 
ADCP,ioos:station:wmo:42362:1,2011-09-04T17:30:00Z,27.7950,-90.6480,22.2,11111222 
ADCP,ioos:station:wmo:42362:1,2011-09-04T17:45:00Z,27.7950,-90.6480,22.8,11111222 
ADCP,ioos:station:wmo:42362:1,2011-09-04T18:00:00Z,27.7950,-90.6480,22.8,11111222 
ADCP,ioos:station:wmo:42362:1,2011-09-04T18:15:00Z,27.7950,-90.6480,22.8,11111222 
ADCP,ioos:station:wmo:42362:1,2011-09-04T18:30:00Z,27.7950,-90.6480,21.1,11111222 
ADCP,ioos:station:wmo:42362:1,2011-09-04T18:45:00Z,27.7950,-90.6480,21.7,11111222 
ADCP,ioos:station:wmo:42362:1,2011-09-04T19:00:00Z,27.7950,-90.6480,22.2,11111222 
ADCP,ioos:station:wmo:42362:1,2011-09-04T19:15:00Z,27.7950,-90.6480,22.8,11111222 
ADCP,ioos:station:wmo:42362:1,2011-09-04T19:30:00Z,27.7950,-90.6480,22.8,11111222 
ADCP,ioos:station:wmo:42362:1,2011-09-04T19:45:00Z,27.7950,-90.6480,22.8,11111222 
ADCP,ioos:station:wmo:42362:1,2011-09-04T20:00:00Z,27.7950,-90.6480,22.2,11111222 
ADCP,ioos:station:wmo:42362:1,2011-09-04T20:15:00Z,27.7950,-90.6480,23.3,11111222 
ADCP,ioos:station:wmo:42362:1,2011-09-04T20:30:00Z,27.7950,-90.6480,22.8,11111222 
ADCP,ioos:station:wmo:42362:1,2011-09-04T20:45:00Z,27.7950,-90.6480,23.3,11111222 
ADCP,ioos:station:wmo:42362:1,2011-09-04T21:00:00Z,27.7950,-90.6480,23.9,11111222 
ADCP,ioos:station:wmo:42362:1,2011-09-04T21:15:00Z,27.7950,-90.6480,23.9,11111222 
ADCP,ioos:station:wmo:42362:1,2011-09-04T21:30:00Z,27.7950,-90.6480,23.9,11111222 
ADCP,ioos:station:wmo:42362:1,2011-09-04T21:45:00Z,27.7950,-90.6480,23.3,11111222 
ADCP,ioos:station:wmo:42362:1,2011-09-04T22:00:00Z,27.7950,-90.6480,23.3,11111222 
ADCP,ioos:station:wmo:42362:1,2011-09-05T09:45:00Z,27.7950,-90.6480,23.3,11111222 
ADCP,ioos:station:wmo:42362:1,2011-09-05T11:30:00Z,27.7950,-90.6480,23.3,11111222 
ADCP,ioos:station:wmo:42362:1,2011-09-05T13:00:00Z,27.7950,-90.6480,21.7,11111222 
ADCP,ioos:station:wmo:42362:1,2011-09-05T13:15:00Z,27.7950,-90.6480,21.7,11111222 
ADCP,ioos:station:wmo:42362:1,2011-09-05T13:30:00Z,27.7950,-90.6480,21.7,11111222 
ADCP,ioos:station:wmo:42362:1,2011-09-05T13:45:00Z,27.7950,-90.6480,21.7,11111222 
ADCP,ioos:station:wmo:42362:1,2011-09-05T14:00:00Z,27.7950,-90.6480,21.7,11111222 
ADCP,ioos:station:wmo:42362:1,2011-09-05T14:15:00Z,27.7950,-90.6480,22.2,11111222 
ADCP,ioos:station:wmo:42362:1,2011-09-05T14:30:00Z,27.7950,-90.6480,22.2,11111222 
ADCP,ioos:station:wmo:42362:1,2011-09-05T14:45:00Z,27.7950,-90.6480,22.2,11111222 
ADCP,ioos:station:wmo:42362:1,2011-09-05T15:00:00Z,27.7950,-90.6480,21.7,11111222 
ADCP,ioos:station:wmo:42362:1,2011-09-05T15:15:00Z,27.7950,-90.6480,22.2,11111222 
ADCP,ioos:station:wmo:42362:1,2011-09-05T15:30:00Z,27.7950,-90.6480,21.7,11111222 
ADCP,ioos:station:wmo:42362:1,2011-09-05T15:45:00Z,27.7950,-90.6480,21.1,11111222 
ADCP,ioos:station:wmo:42362:1,2011-09-05T16:00:00Z,27.7950,-90.6480,21.1,11111222 
ADCP,ioos:station:wmo:42362:1,2011-09-05T16:15:00Z,27.7950,-90.6480,21.1,11111222 
ADCP,ioos:station:wmo:42362:1,2011-09-05T16:30:00Z,27.7950,-90.6480,21.1,11111222 
ADCP,ioos:station:wmo:42362:1,2011-09-05T16:45:00Z,27.7950,-90.6480,20.6,11111222 
ADCP,ioos:station:wmo:42362:1,2011-09-05T17:00:00Z,27.7950,-90.6480,20.6,11111222 
ADCP,ioos:station:wmo:42362:1,2011-09-05T17:15:00Z,27.7950,-90.6480,20.0,11111222 
ADCP,ioos:station:wmo:42362:1,2011-09-05T17:30:00Z,27.7950,-90.6480,20.6,11111222 
ADCP,ioos:station:wmo:42362:1,2011-09-05T17:45:00Z,27.7950,-90.6480,20.6,11111222 
ADCP,ioos:station:wmo:42362:1,2011-09-05T18:00:00Z,27.7950,-90.6480,20.6,11111222 
ADCP,ioos:station:wmo:42362:1,2011-09-05T18:15:00Z,27.7950,-90.6480,20.0,11111222 
ADCP,ioos:station:wmo:42362:1,2011-09-05T18:30:00Z,27.7950,-90.6480,20.6,11111222 
ADCP,ioos:station:wmo:42362:1,2011-09-05T18:45:00Z,27.7950,-90.6480,20.0,11111222 
ADCP,ioos:station:wmo:42362:1,2011-09-05T19:00:00Z,27.7950,-90.6480,20.0,11111222 
ADCP,ioos:station:wmo:42362:1,2011-09-05T19:15:00Z,27.7950,-90.6480,20.0,11111222 
ADCP,ioos:station:wmo:42362:1,2011-09-05T19:30:00Z,27.7950,-90.6480,20.0,11111222 
ADCP,ioos:station:wmo:42362:1,2011-09-05T19:45:00Z,27.7950,-90.6480,20.0,11111222 
ADCP,ioos:station:wmo:42362:1,2011-09-05T20:00:00Z,27.7950,-90.6480,19.4,11111222 
ADCP,ioos:station:wmo:42362:1,2011-09-05T20:15:00Z,27.7950,-90.6480,19.4,11111222 
ADCP,ioos:station:wmo:42362:1,2011-09-05T20:30:00Z,27.7950,-90.6480,19.4,11111222 
ADCP,ioos:station:wmo:42362:1,2011-09-05T20:45:00Z,27.7950,-90.6480,19.4,11111222 
ADCP,ioos:station:wmo:42362:1,2011-09-05T21:00:00Z,27.7950,-90.6480,19.4,11111222 
ADCP,ioos:station:wmo:42362:1,2011-09-05T21:15:00Z,27.7950,-90.6480,18.9,11111222 
ADCP,ioos:station:wmo:42362:1,2011-09-05T21:30:00Z,27.7950,-90.6480,18.9,11111222 
ADCP,ioos:station:wmo:42362:1,2011-09-06T20:45:00Z,27.7950,-90.6480,8.9,11111222 
ADCP,ioos:station:wmo:42362:1,2011-09-07T09:30:00Z,27.7950,-90.6480,12.8,11111222 
ADCP,ioos:station:wmo:42362:1,2011-09-07T10:15:00Z,27.7950,-90.6480,12.8,11111222 
ADCP,ioos:station:wmo:42362:1,2011-09-07T10:30:00Z,27.7950,-90.6480,12.8,11111222 
ADCP,ioos:station:wmo:42362:1,2011-09-07T10:45:00Z,27.7950,-90.6480,12.8,11111222 
ADCP,ioos:station:wmo:42362:1,2011-09-07T11:00:00Z,27.7950,-90.6480,12.2,11111222 
ADCP,ioos:station:wmo:42362:1,2011-09-07T11:15:00Z,27.7950,-90.6480,12.8,11111222 
ADCP,ioos:station:wmo:42362:1,2011-09-07T11:30:00Z,27.7950,-90.6480,12.8,11111222 
ADCP,ioos:station:wmo:42362:1,2011-09-07T12:00:00Z,27.7950,-90.6480,12.2,11111222 
ADCP,ioos:station:wmo:42362:1,2011-09-07T12:15:00Z,27.7950,-90.6480,12.8,11111222 
ADCP,ioos:station:wmo:42362:1,2011-09-07T12:30:00Z,27.7950,-90.6480,13.3,11111222 
ADCP,ioos:station:wmo:42362:1,2011-09-07T12:45:00Z,27.7950,-90.6480,13.3,11111222 
ADCP,ioos:station:wmo:42362:1,2011-09-07T13:00:00Z,27.7950,-90.6480,12.8,11111222 
ADCP,ioos:station:wmo:42362:1,2011-09-07T13:15:00Z,27.7950,-90.6480,13.9,11111222 
ADCP,ioos:station:wmo:42362:1,2011-09-07T13:30:00Z,27.7950,-90.6480,13.3,11111222 
ADCP,ioos:station:wmo:42362:1,2011-09-07T13:45:00Z,27.7950,-90.6480,12.8,11111222 
ADCP,ioos:station:wmo:42362:1,2011-09-07T14:00:00Z,27.7950,-90.6480,13.3,11111222 
ADCP,ioos:station:wmo:42362:1,2011-09-07T14:15:00Z,27.7950,-90.6480,13.9,11111222 
ADCP,ioos:station:wmo:42362:1,2011-09-07T14:30:00Z,27.7950,-90.6480,13.9,11111222 
ADCP,ioos:station:wmo:42362:1,2011-09-07T14:45:00Z,27.7950,-90.6480,13.3,11111222 
ADCP,ioos:station:wmo:42362:1,2011-09-07T15:00:00Z,27.7950,-90.6480,13.9,11111222 
ADCP,ioos:station:wmo:42362:1,2011-09-07T15:15:00Z,27.7950,-90.6480,13.9,11111222 
ADCP,ioos:station:wmo:42362:1,2011-09-07T15:30:00Z,27.7950,-90.6480,13.9,11111222 
ADCP,ioos:station:wmo:42362:1,2011-09-07T15:45:00Z,27.7950,-90.6480,14.4,11111222 
ADCP,ioos:station:wmo:42362:1,2011-09-07T16:00:00Z,27.7950,-90.6480,14.4,11111222 
ADCP,ioos:station:wmo:42362:1,2011-09-07T16:15:00Z,27.7950,-90.6480,14.4,11111222 
ADCP,ioos:station:wmo:42362:1,2011-09-07T16:30:00Z,27.7950,-90.6480,15.0,11111222 
ADCP,ioos:station:wmo:42362:1,2011-09-07T16:45:00Z,27.7950,-90.6480,14.4,11111222 
ADCP,ioos:station:wmo:42362:1,2011-09-07T17:00:00Z,27.7950,-90.6480,15.0,11111222 
ADCP,ioos:station:wmo:42362:1,2011-09-07T17:15:00Z,27.7950,-90.6480,15.0,11111222 
ADCP,ioos:station:wmo:42362:1,2011-09-07T17:30:00Z,27.7950,-90.6480,15.0,11111222 
ADCP,ioos:station:wmo:42362:1,2011-09-07T17:45:00Z,27.7950,-90.6480,15.0,11111222 
ADCP,ioos:station:wmo:42362:1,2011-09-07T18:00:00Z,27.7950,-90.6480,15.0,11111222 
ADCP,ioos:station:wmo:42362:1,2011-09-07T18:15:00Z,27.7950,-90.6480,14.4,11111222 
ADCP,ioos:station:wmo:42362:1,2011-09-07T18:30:00Z,27.7950,-90.6480,15.0,11111222 
ADCP,ioos:station:wmo:42362:1,2011-09-07T18:45:00Z,27.7950,-90.6480,15.0,11111222 
ADCP,ioos:station:wmo:42362:1,2011-09-07T19:00:00Z,27.7950,-90.6480,15.0,11111222 
ADCP,ioos:station:wmo:42362:1,2011-09-07T19:15:00Z,27.7950,-90.6480,15.0,11111222 
ADCP,ioos:station:wmo:42362:1,2011-09-07T19:30:00Z,27.7950,-90.6480,15.0,11111222 
ADCP,ioos:station:wmo:42362:1,2011-09-07T19:45:00Z,27.7950,-90.6480,14.4,11111222 
ADCP,ioos:station:wmo:42362:1,2011-09-07T20:00:00Z,27.7950,-90.6480,14.4,11111222 
ADCP,ioos:station:wmo:42362:1,2011-09-07T20:15:00Z,27.7950,-90.6480,14.4,11111222 
ADCP,ioos:station:wmo:42362:1,2011-09-07T20:30:00Z,27.7950,-90.6480,14.4,11111222 
ADCP,ioos:station:wmo:42362:1,2011-09-07T20:45:00Z,27.7950,-90.6480,15.0,11111222 
ADCP,ioos:station:wmo:42362:1,2011-09-07T21:00:00Z,27.7950,-90.6480,15.0,11111222 
ADCP,ioos:station:wmo:42362:1,2011-09-07T21:15:00Z,27.7950,-90.6480,14.4,11111222 
ADCP,ioos:station:wmo:42362:1,2011-09-07T21:30:00Z,27.7950,-90.6480,14.4,11111222 
ADCP,ioos:station:wmo:42362:1,2011-09-07T21:45:00Z,27.7950,-90.6480,15.0,11111222 
ADCP,ioos:station:wmo:42362:1,2011-09-07T22:00:00Z,27.7950,-90.6480,15.0,11111222 
ADCP,ioos:station:wmo:42362:1,2011-09-07T22:30:00Z,27.7950,-90.6480,15.0,11111222 
ADCP,ioos:station:wmo:42362:1,2011-09-07T22:45:00Z,27.7950,-90.6480,15.0,11111222 
ADCP,ioos:station:wmo:42362:1,2011-09-07T23:15:00Z,27.7950,-90.6480,15.0,11111222 
ADCP,ioos:station:wmo:42362:1,2011-09-07T23:30:00Z,27.7950,-90.6480,15.0,11111222 
ADCP,ioos:station:wmo:42362:1,2011-09-07T23:45:00Z,27.7950,-90.6480,15.6,11111222 
ADCP,ioos:station:wmo:42362:1,2011-09-08T00:00:00Z,27.7950,-90.6480,15.6,11111222 
ADCP,ioos:station:wmo:42362:1,2011-09-08T00:15:00Z,27.7950,-90.6480,15.0,11111222 
ADCP,ioos:station:wmo:42362:1,2011-09-08T00:30:00Z,27.7950,-90.6480,15.0,11111222 
ADCP,ioos:station:wmo:42362:1,2011-09-08T00:45:00Z,27.7950,-90.6480,15.0,11111222 
ADCP,ioos:station:wmo:42362:1,2011-09-08T01:00:00Z,27.7950,-90.6480,14.4,11111222 
ADCP,ioos:station:wmo:42362:1,2011-09-08T01:15:00Z,27.7950,-90.6480,13.9,11111222 
ADCP,ioos:station:wmo:42362:1,2011-09-08T01:30:00Z,27.7950,-90.6480,13.9,11111222 
ADCP,ioos:station:wmo:42362:1,2011-09-08T01:45:00Z,27.7950,-90.6480,13.3,11111222 
ADCP,ioos:station:wmo:42362:1,2011-09-08T02:00:00Z,27.7950,-90.6480,13.3,11111222 
ADCP,ioos:station:wmo:42362:1,2011-09-08T02:15:00Z,27.7950,-90.6480,12.8,11111222 
ADCP,ioos:station:wmo:42362:1,2011-09-08T02:30:00Z,27.7950,-90.6480,12.8,11111222 
ADCP,ioos:station:wmo:42362:1,2011-09-08T02:45:00Z,27.7950,-90.6480,11.7,11111222 
ADCP,ioos:station:wmo:42362:1,2011-09-08T03:00:00Z,27.7950,-90.6480,12.8,11111222 
ADCP,ioos:station:wmo:42362:1,2011-09-08T03:15:00Z,27.7950,-90.6480,13.3,11111222 
ADCP,ioos:station:wmo:42362:1,2011-09-08T03:30:00Z,27.7950,-90.6480,13.3,11111222 